Commit Graph
100 Commits
Author SHA1 Message Date
MihailRis 34d4500e24 binary_json_spec.md update (cdocument explanation) 2024-01-17 01:24:48 +03:00
MihailRis 9a518ecc5f added missing #include 2024-01-17 00:55:49 +03:00
MihailRis b0165b1014 gzip compress/decompress + refactor 2024-01-17 00:52:55 +03:00
MihailRis 3837cdcf95 binary json format introduced + specification 2024-01-16 19:05:27 +03:00
MihailRisandGitHub faa581a928 Merge pull request #114 from clasher113/main
Camera rotation fix
2024-01-15 22:11:57 +03:00
MihailRis ca40b93344 small fixes 2024-01-15 14:32:18 +03:00
MihailRis 1e12f80dd6 version set to 0.18 + WorldGenerator indents fix 2024-01-15 13:08:31 +03:00
MihailRis cec8d75b7d added content error message screen on world creation 2024-01-14 20:10:50 +03:00
MihailRis 0b48a77e2d world.set_day_time fix 2024-01-14 17:37:42 +03:00
MihailRisandGitHub a4e366f0c1 Update README.md 2024-01-14 16:36:28 +03:00
MihailRis beddfb5359 scripting prevent-default fix 2024-01-14 15:00:11 +03:00
MihailRis 6d60cc8276 small fix 2024-01-13 21:33:36 +03:00
MihailRis 9fd675895d physics: step height 2024-01-13 21:20:25 +03:00
MihailRis 3183513e55 luaL_openlib replacement fix 2024-01-13 20:48:24 +03:00
MihailRisandGitHub c7fb887888 Merge pull request #104 from rekvizitt/patch-1
Update be_BY.txt
2024-01-13 16:40:01 +03:00
MihailRis 5569bd711e added bazalt_breaker + scripting fix 2024-01-13 14:07:49 +03:00
MihailRis 40987f16b6 small lua fix 2024-01-13 11:16:44 +03:00
MihailRisandGitHub 39832233bb Update README.md 2024-01-13 01:54:16 +03:00
MihailRis 6817e613f8 Collision inside of blocks fix test 2024-01-12 20:47:15 +03:00
MihailRis 5669e6ebed TextBox::setOnEditStart(runnable) 2024-01-12 19:29:49 +03:00
MihailRis 175613692f default item texture fix 2024-01-12 16:55:48 +03:00
MihailRis 444a2061c5 lua: player functions update 2024-01-12 14:18:29 +03:00
MihailRis 31b0349757 HUD hide mode fix 2024-01-12 13:21:40 +03:00
MihailRis faabb8178a New scripting features 2024-01-12 12:16:54 +03:00
MihailRis 05fe86e64c emissive items 2024-01-11 18:02:27 +03:00
MihailRis 213eba6072 added stringutil::to_string 2024-01-11 04:10:43 +03:00
MihailRis 290fec379e added FullCheckBox 2024-01-11 04:08:36 +03:00
MihailRis b2b961552b guiutil::alert text wrapping + refactor 2024-01-11 03:21:14 +03:00
MihailRis e1d30732df TextBox validation + minor refactor, fixes 2024-01-11 02:37:29 +03:00
MihailRis 61ad839ebf Small optimization 2024-01-10 16:46:36 +03:00
MihailRis 9760cff8f4 Refactor 2024-01-10 16:41:51 +03:00
MihailRis e2bb7a34aa palette png reading support 2024-01-10 03:49:20 +03:00
MihailRis abd28514e4 Content error messages 2024-01-09 20:19:46 +03:00
MihailRis dfeb7293b2 Fixed sky lighting intensity and color 2024-01-09 19:42:39 +03:00
MihailRis 486068b2af sprite items + tetragons format update 2024-01-09 15:51:09 +03:00
MihailRis 0216c4e00b small fix 2024-01-09 13:38:27 +03:00
MihailRis 93e794a601 Fixed normals direction 2024-01-09 13:34:37 +03:00
MihailRis cce2b730f2 Removed extras 2024-01-09 13:26:18 +03:00
MihailRis 484c2b85cf Custom models lights fix 2024-01-09 13:24:45 +03:00
MihailRisandGitHub 72d589d39e Merge pull request #97 from A-lex-Ra/main
Custom block model done
2024-01-09 13:03:07 +03:00
MihailRis c9576f1fc4 Minor item refactor 2024-01-09 12:58:35 +03:00
MihailRis b5739c678f Items intruduced (part II) 2024-01-09 00:49:17 +03:00
MihailRis eae00dbb11 InventoryView now uses items instead of blocks (part I) 2024-01-08 15:45:03 +03:00
MihailRis dd5cd55aeb Generated items 2024-01-08 14:16:25 +03:00
MihailRisandGitHub e4f7b6d97c Merge pull request #96 from A-lex-Ra/main
Customfaces block model introduced
2024-01-08 13:05:19 +03:00
MihailRis 4a57e71e81 Items intruduced (WIP) 2024-01-08 01:11:22 +03:00
MihailRis 4f6ba8cca6 hud refactor (part III) 2024-01-07 23:30:07 +03:00
MihailRis e493c67dfa hud refactor (part II) 2024-01-07 19:22:29 +03:00
MihailRisandGitHub 8118afce5c Merge pull request #95 from DSDemen/main
Добавил Финский Язык
2024-01-07 18:52:21 +03:00
MihailRis d4c4c4d399 hud refactor 2024-01-07 14:25:00 +03:00
MihailRis 85d85dada7 Minor refactor 2024-01-06 14:36:37 +03:00
MihailRisandGitHub 5342d5489d Merge pull request #91 from A-lex-Ra/main
upd CMakeLists MSVC building
2024-01-05 19:16:54 +03:00
MihailRis c2dd185c08 Hud refactor 2024-01-05 18:41:55 +03:00
MihailRis eaf3f4e7a1 Minor refactor 2024-01-05 14:59:53 +03:00
MihailRisandGitHub 3101b1b5f8 Merge pull request #89 from A-lex-Ra/main
всякое
2024-01-05 14:09:01 +03:00
MihailRis 0f1aabf200 Pasting text from clipboard 2024-01-05 13:55:15 +03:00
MihailRis 73595cd558 Minor refactor 2024-01-04 22:57:18 +03:00
MihailRis 5bd78c09ad Minor refactor 2024-01-04 22:47:21 +03:00
MihailRis e1420a2c57 RGB888 textures fix 2024-01-04 22:25:03 +03:00
MihailRis c35057d1de Rotation profiles limited to 8 2024-01-04 21:48:41 +03:00
MihailRisandGitHub 6542bcbc6a Merge pull request #88 from A-lex-Ra/main
simplify rays (rm templates and other complexity)
2024-01-04 21:29:18 +03:00
MihailRis 61dccbf8b9 Small optimization 2024-01-04 16:37:47 +03:00
MihailRis 374e5654ad Added inventory scroll + minor refactor 2024-01-04 16:34:52 +03:00
MihailRis ee691f8c3f script states renamed to user bits 2024-01-04 15:34:51 +03:00
MihailRis 06f66ffd71 Voxel changed from 16 bit to 32 bit + new lua functions 2024-01-04 15:27:07 +03:00
MihailRis 460b08a006 WorldFiles region format and magic check 2024-01-03 23:25:58 +03:00
MihailRis e7e2c16ee6 Minor refactor 2024-01-03 22:51:48 +03:00
MihailRis 2ad115a2a8 Minor refactor 2024-01-03 20:42:26 +03:00
MihailRis 0d36f52bdd Lua: added get_player_rot, set_player_rot 2024-01-03 16:53:33 +03:00
MihailRis 6198ca22f6 world/content added to packs search paths 2024-01-03 15:22:52 +03:00
MihailRis 01121b6d27 packs list read fix 2024-01-03 15:09:58 +03:00
MihailRisandGitHub a96fbf2eb4 Merge pull request #85 from koval01/main
Added Ukrainian and Polish languages
2024-01-03 14:20:40 +03:00
MihailRisandGitHub cae95ba9b8 Merge pull request #81 from etocasper/main
Update readme & gitignore for macOS (v16)
2023-12-31 17:56:37 +03:00
MihailRisandGitHub 7a960be7ec Merge pull request #83 from rekvizitt/main
belarusian translation
2023-12-31 17:54:28 +03:00
MihailRisandGitHub 8b65dadccc Merge pull request #82 from A-lex-Ra/main
MSVC static crt linking fix
2023-12-31 10:52:56 +03:00
MihailRis 861c7f6c76 Resources priority update 2023-12-30 20:53:38 +03:00
MihailRis 298cf561bc Russian translation fix 2023-12-30 19:18:10 +03:00
MihailRisandGitHub 0cb1b4fe9a Update README.md 2023-12-30 11:51:38 +03:00
MihailRisandGitHub fb149f22d1 Update README.md 2023-12-30 11:51:26 +03:00
MihailRis 71fdd4b63e msvc build fix 2023-12-30 00:35:42 +03:00
MihailRis d2ace01c07 minor refactor 2023-12-30 00:02:17 +03:00
MihailRis e7e7bbbe59 leak fix 2023-12-29 23:59:33 +03:00
MihailRis 188e2b81b7 Block interaction prevention feature (Shift key) 2023-12-29 23:57:27 +03:00
MihailRis 9ebbe1029d New block properties and lua functions 2023-12-29 21:18:14 +03:00
MihailRis 9e1a7213c7 Small fix 2023-12-29 16:23:12 +03:00
MihailRis bf13c517ab Test garbage removed 2023-12-29 14:41:21 +03:00
MihailRis 74af65f320 Sky artifacts fix 2023-12-29 14:40:33 +03:00
MihailRis 76aeb8e4df Content packs indices auto build + WorldGenerator fix 2023-12-29 14:17:26 +03:00
MihailRis d2a40d31a4 scripting: get_player_pos, set_player_pos 2023-12-29 00:46:26 +03:00
MihailRis 2c75a0bee4 scripting: on_interact (right click on block) callback 2023-12-29 00:31:21 +03:00
MihailRis 2b4e6c1a14 AABB emissive blocks lighting fix + refactor 2023-12-28 23:22:19 +03:00
MihailRis 178107ffff Fixed aabb blocks lights 2023-12-28 22:10:24 +03:00
MihailRis b8d7e89f0b AABB blocks render simplified 2023-12-28 20:03:25 +03:00
MihailRis 3f9e36e682 Small fix 2023-12-28 19:29:45 +03:00
MihailRis a1e3706c8f Stop render when iconified 2023-12-28 18:55:54 +03:00
MihailRis 837fd2f32f BlocksRenderer simplified (part 1) 2023-12-28 03:49:24 +03:00
MihailRis 86ab2d8145 Added some docs 2023-12-28 02:48:20 +03:00
MihailRisandGitHub d75b2641c2 Merge pull request #63 from istudyatuni/ci-release
feat(ci): upload artifacts and make release
2023-12-27 18:16:24 +03:00
MihailRisandGitHub e8d882c32e Merge pull request #74 from QuFlax/my
Fix and Optimize Events
2023-12-27 18:07:58 +03:00
MihailRis 69a17c25ea WorldRegions memory management update 2023-12-27 11:44:19 +03:00